| time (UTC) | temp F | wind direction | speed MPH | gust MPH | rain 1hr in | rain 24hr in | rain mn in | humidity % | barometer mb |
| 20260505213655 | 25 | 322 | 0.0 | 7.0 | 0.00 | 0.00 | 0.00 | 66 | 1016.1 |
| 20260505213356 | 25 | 344 | 1.0 | 6.0 | 0.00 | 0.00 | 0.00 | 67 | 1016.1 |
| 20260505213155 | 25 | 317 | 4.0 | 4.0 | 0.00 | 0.00 | 0.00 | 67 | 1016.1 |
| 20260505212655 | 25 | 345 | 0.0 | 3.0 | 0.00 | 0.00 | 0.00 | 68 | 1015.9 |
| 20260505212256 | 25 | 330 | 2.0 | 2.0 | 0.00 | 0.00 | 0.00 | 67 | 1016.1 |
| 20260505212155 | 25 | 313 | 0.0 | 0.0 | 0.00 | 0.00 | 0.00 | 67 | 1015.9 |
| 20260505211655 | 25 | 313 | 0.0 | 0.0 | 0.00 | 0.00 | 0.00 | 66 | 1015.9 |
| 20260505211155 | 25 | 313 | 0.0 | 0.0 | 0.00 | 0.00 | 0.00 | 66 | 1015.9 |
| 20260505210655 | 25 | 313 | 0.0 | 3.0 | 0.00 | 0.00 | 0.00 | 66 | 1015.9 |
| 20260505210155 | 26 | 300 | 0.0 | 4.0 | 0.00 | 0.00 | 0.00 | 66 | 1015.8 |
| 20260505210056 | 26 | 305 | 0.0 | 5.0 | 0.00 | 0.00 | 0.00 | 66 | 1015.8 |
| 20260505205655 | 26 | 302 | 2.0 | 7.0 | 0.00 | 0.00 | 0.00 | 66 | 1015.8 |
| 20260505205155 | 26 | 295 | 6.0 | 6.0 | 0.00 | 0.00 | 0.00 | 66 | 1015.7 |
| 20260505204956 | 26 | 281 | 1.0 | 5.0 | 0.00 | 0.00 | 0.00 | 66 | 1015.7 |
| 20260505204655 | 26 | 292 | 0.0 | 6.0 | 0.00 | 0.00 | 0.00 | 65 | 1015.8 |
| 20260505204155 | 26 | 295 | 6.0 | 7.0 | 0.00 | 0.00 | 0.00 | 65 | 1015.8 |
| 20260505203856 | 26 | 292 | 0.0 | 0.0 | 0.00 | 0.00 | 0.00 | 65 | 1015.8 |
| 20260505203655 | 26 | 292 | 0.0 | 0.0 | 0.00 | 0.00 | 0.00 | 65 | 1015.7 |
| 20260505203155 | 27 | 292 | 0.0 | 0.0 | 0.00 | 0.00 | 0.00 | 65 | 1015.8 |
| 20260505202756 | 27 | 292 | 0.0 | 5.0 | 0.00 | 0.00 | 0.00 | 65 | 1015.7 |
| 20260505202655 | 27 | 292 | 0.0 | 5.0 | 0.00 | 0.00 | 0.00 | 65 | 1015.7 |
| 20260505202155 | 27 | 258 | 3.0 | 4.0 | 0.00 | 0.00 | 0.00 | 65 | 1015.6 |
| 20260505201655 | 27 | 317 | 2.0 | 4.0 | 0.00 | 0.00 | 0.00 | 65 | 1015.6 |
| 20260505201155 | 27 | 329 | 1.0 | 4.0 | 0.00 | 0.00 | 0.00 | 65 | 1015.6 |
| 20260505200655 | 27 | 320 | 1.0 | 5.0 | 0.00 | 0.00 | 0.00 | 65 | 1015.5 |
| 20260505200556 | 27 | 274 | 2.0 | 5.0 | 0.00 | 0.00 | 0.00 | 65 | 1015.6 |
| 20260505200155 | 27 | 306 | 1.0 | 6.0 | 0.00 | 0.00 | 0.00 | 65 | 1015.5 |
| 20260505195655 | 27 | 286 | 1.0 | 7.0 | 0.00 | 0.00 | 0.00 | 64 | 1015.4 |
| 20260505195456 | 27 | 324 | 3.0 | 10.0 | 0.00 | 0.00 | 0.00 | 64 | 1015.4 |
| 20260505195155 | 28 | 326 | 3.0 | 10.0 | 0.00 | 0.00 | 0.00 | 64 | 1015.4 |
| 20260505194655 | 28 | 322 | 2.0 | 7.0 | 0.00 | 0.00 | 0.00 | 63 | 1015.3 |
| 20260505194356 | 28 | 329 | 2.0 | 7.0 | 0.00 | 0.00 | 0.00 | 63 | 1015.3 |
| 20260505194155 | 28 | 300 | 3.0 | 7.0 | 0.00 | 0.00 | 0.00 | 63 | 1015.2 |
| 20260505193655 | 28 | 285 | 4.0 | 8.0 | 0.00 | 0.00 | 0.00 | 62 | 1015.2 |
| 20260505193257 | 28 | 307 | 3.0 | 8.0 | 0.00 | 0.00 | 0.00 | 62 | 1015.2 |
| 20260505193155 | 28 | 307 | 5.0 | 8.0 | 0.00 | 0.00 | 0.00 | 62 | 1015.2 |
| 20260505192655 | 29 | 298 | 3.0 | 6.0 | 0.00 | 0.00 | 0.00 | 63 | 1015.2 |
| 20260505192155 | 29 | 320 | 2.0 | 7.0 | 0.00 | 0.00 | 0.00 | 62 | 1015.2 |
| 20260505191655 | 29 | 299 | 3.0 | 5.0 | 0.00 | 0.00 | 0.00 | 62 | 1015.0 |
| 20260505191155 | 30 | 299 | 4.0 | 8.0 | 0.00 | 0.00 | 0.00 | 62 | 1015.0 |
| 20260505191056 | 30 | 281 | 6.0 | 8.0 | 0.00 | 0.00 | 0.00 | 61 | 1015.0 |
| 20260505190655 | 30 | 299 | 3.0 | 8.0 | 0.00 | 0.00 | 0.00 | 61 | 1014.9 |
| 20260505190155 | 31 | 313 | 3.0 | 10.0 | 0.00 | 0.00 | 0.00 | 58 | 1014.9 |
| 20260505185956 | 32 | 300 | 6.0 | 10.0 | 0.00 | 0.00 | 0.00 | 58 | 1014.9 |
| 20260505185655 | 32 | 289 | 6.0 | 9.0 | 0.00 | 0.00 | 0.00 | 59 | 1014.8 |
| 20260505185155 | 31 | 291 | 5.0 | 9.0 | 0.00 | 0.00 | 0.00 | 59 | 1014.7 |
| 20260505184856 | 32 | 299 | 6.0 | 10.0 | 0.00 | 0.00 | 0.00 | 57 | 1014.8 |
| 20260505184655 | 32 | 302 | 7.0 | 10.0 | 0.00 | 0.00 | 0.00 | 58 | 1014.7 |
| 20260505184155 | 32 | 306 | 1.0 | 7.0 | 0.00 | 0.00 | 0.00 | 61 | 1014.7 |
| 20260505183756 | 31 | 326 | 5.0 | 7.0 | 0.00 | 0.00 | 0.00 | 62 | 1014.7 |
| 20260505183655 | 31 | 324 | 3.0 | 7.0 | 0.00 | 0.00 | 0.00 | 63 | 1014.7 |
| 20260505183155 | 31 | 309 | 3.0 | 6.0 | 0.00 | 0.00 | 0.00 | 64 | 1014.7 |
| 20260505182655 | 30 | 298 | 2.0 | 5.0 | 0.00 | 0.00 | 0.00 | 65 | 1014.7 |
| 20260505182155 | 30 | 298 | 0.0 | 7.0 | 0.00 | 0.00 | 0.00 | 65 | 1014.7 |
| 20260505181655 | 30 | 323 | 5.0 | 7.0 | 0.00 | 0.00 | 0.00 | 64 | 1014.6 |
| 20260505181556 | 30 | 278 | 5.0 | 8.0 | 0.00 | 0.00 | 0.00 | 63 | 1014.7 |
| 20260505181155 | 31 | 319 | 2.0 | 8.0 | 0.00 | 0.00 | 0.00 | 62 | 1014.7 |
| 20260505180655 | 31 | 293 | 1.0 | 6.0 | 0.00 | 0.00 | 0.00 | 61 | 1014.7 |
| 20260505180457 | 31 | 320 | 2.0 | 6.0 | 0.00 | 0.00 | 0.00 | 61 | 1014.7 |
| 20260505180155 | 31 | 286 | 4.0 | 9.0 | 0.00 | 0.00 | 0.00 | 61 | 1014.6 |
| 20260505175655 | 32 | 296 | 2.0 | 7.0 | 0.00 | 0.00 | 0.00 | 59 | 1014.6 |
| 20260505175357 | 32 | 322 | 5.0 | 5.0 | 0.00 | 0.00 | 0.00 | 59 | 1014.6 |
| 20260505175155 | 32 | 307 | 0.0 | 6.0 | 0.00 | 0.00 | 0.00 | 58 | 1014.6 |
| 20260505174655 | 32 | 307 | 5.0 | 10.0 | 0.00 | 0.00 | 0.00 | 57 | 1014.5 |
| 20260505174257 | 32 | 307 | 3.0 | 9.0 | 0.00 | 0.00 | 0.00 | 55 | 1014.5 |
| 20260505174156 | 32 | 324 | 3.0 | 10.0 | 0.00 | 0.00 | 0.00 | 55 | 1014.6 |
| 20260505173655 | 32 | 326 | 5.0 | 10.0 | 0.00 | 0.00 | 0.00 | 52 | 1014.6 |
| 20260505173156 | 33 | 255 | 8.0 | 11.0 | 0.00 | 0.00 | 0.00 | 52 | 1014.6 |
| 20260505172655 | 33 | 292 | 6.0 | 12.0 | 0.00 | 0.00 | 0.00 | 51 | 1014.6 |
| 20260505172156 | 33 | 309 | 4.0 | 11.0 | 0.00 | 0.00 | 0.00 | 51 | 1014.6 |
| 20260505172057 | 33 | 300 | 3.0 | 14.0 | 0.00 | 0.00 | 0.00 | 51 | 1014.6 |
| 20260505171656 | 33 | 300 | 5.0 | 14.0 | 0.00 | 0.00 | 0.00 | 48 | 1014.6 |
| 20260505171156 | 34 | 289 | 3.0 | 11.0 | 0.00 | 0.00 | 0.00 | 51 | 1014.6 |
| 20260505170957 | 33 | 299 | 3.0 | 7.0 | 0.00 | 0.00 | 0.00 | 51 | 1014.5 |
| 20260505170656 | 33 | 270 | 5.0 | 11.0 | 0.00 | 0.00 | 0.00 | 50 | 1014.6 |
| 20260505170156 | 33 | 310 | 2.0 | 9.0 | 0.00 | 0.00 | 0.00 | 50 | 1014.5 |
| 20260505165858 | 33 | 300 | 3.0 | 11.0 | 0.00 | 0.00 | 0.00 | 49 | 1014.5 |
| 20260505165656 | 33 | 275 | 4.0 | 11.0 | 0.00 | 0.00 | 0.00 | 48 | 1014.6 |
| 20260505165156 | 33 | 312 | 0.0 | 7.0 | 0.00 | 0.00 | 0.00 | 52 | 1014.5 |
| 20260505164757 | 32 | 8 | 0.0 | 10.0 | 0.00 | 0.00 | 0.00 | 52 | 1014.6 |
| 20260505164656 | 32 | 319 | 1.0 | 10.0 | 0.00 | 0.00 | 0.00 | 52 | 1014.7 |
| 20260505164156 | 32 | 316 | 6.0 | 8.0 | 0.00 | 0.00 | 0.00 | 52 | 1014.6 |
| 20260505163656 | 32 | 284 | 2.0 | 11.0 | 0.00 | 0.00 | 0.00 | 51 | 1014.7 |
| 20260505163156 | 32 | 307 | 2.0 | 9.0 | 0.00 | 0.00 | 0.00 | 50 | 1014.7 |
| 20260505162656 | 32 | 313 | 3.0 | 8.0 | 0.00 | 0.00 | 0.00 | 49 | 1014.5 |
| 20260505162557 | 32 | 312 | 3.0 | 8.0 | 0.00 | 0.00 | 0.00 | 50 | 1014.7 |
| 20260505162156 | 32 | 268 | 0.0 | 11.0 | 0.00 | 0.00 | 0.00 | 50 | 1014.7 |
| 20260505161656 | 32 | 330 | 1.0 | 8.0 | 0.00 | 0.00 | 0.00 | 47 | 1014.7 |
| 20260505161457 | 32 | 305 | 5.0 | 8.0 | 0.00 | 0.00 | 0.00 | 49 | 1014.7 |
| 20260505161156 | 32 | 303 | 2.0 | 9.0 | 0.00 | 0.00 | 0.00 | 48 | 1014.6 |
| 20260505160656 | 32 | 306 | 3.0 | 11.0 | 0.00 | 0.00 | 0.00 | 49 | 1014.6 |
| 20260505160357 | 33 | 322 | 6.0 | 11.0 | 0.00 | 0.00 | 0.00 | 48 | 1014.6 |
| 20260505160156 | 33 | 300 | 7.0 | 11.0 | 0.00 | 0.00 | 0.00 | 49 | 1014.6 |
| 20260505153156 | 36 | 313 | 3.0 | 10.0 | 0.00 | 0.00 | 0.00 | 45 | 1014.3 |
| 20260505153057 | 36 | 317 | 6.0 | 10.0 | 0.00 | 0.00 | 0.00 | 47 | 1014.4 |
| 20260505152656 | 36 | 336 | 4.0 | 14.0 | 0.00 | 0.00 | 0.00 | 47 | 1014.5 |
| 20260505152156 | 35 | 282 | 6.0 | 13.0 | 0.00 | 0.00 | 0.00 | 46 | 1014.5 |
| 20260505151957 | 35 | 320 | 5.0 | 13.0 | 0.00 | 0.00 | 0.00 | 46 | 1014.5 |
| 20260505151656 | 35 | 336 | 3.0 | 12.0 | 0.00 | 0.00 | 0.00 | 47 | 1014.4 |
| 20260505151156 | 35 | 284 | 10.0 | 13.0 | 0.00 | 0.00 | 0.00 | 45 | 1014.4 |
| 20260505150857 | 35 | 258 | 5.0 | 10.0 | 0.00 | 0.00 | 0.00 | 48 | 1014.4 |
| 20260505150656 | 34 | 270 | 4.0 | 9.0 | 0.00 | 0.00 | 0.00 | 51 | 1014.4 |
| 20260505150156 | 33 | 333 | 0.0 | 8.0 | 0.00 | 0.00 | 0.00 | 51 | 1014.3 |
| 20260505140257 | 34 | 300 | 3.0 | 8.0 | 0.00 | 0.00 | 0.00 | 46 | 1014.1 |
| 20260505140156 | 34 | 288 | 4.0 | 8.0 | 0.00 | 0.00 | 0.00 | 44 | 1014.3 |
| 20260505130156 | 33 | 299 | 3.0 | 10.0 | 0.00 | 0.00 | 0.00 | 42 | 1014.3 |
| 20260505124656 | 34 | 316 | 1.0 | 13.0 | 0.00 | 0.00 | 0.00 | 42 | 1014.1 |
| 20260505124557 | 34 | 317 | 0.0 | 13.0 | 0.00 | 0.00 | 0.00 | 41 | 1014.1 |
| 20260505124156 | 34 | 315 | 1.0 | 17.0 | 0.00 | 0.00 | 0.00 | 40 | 1014.1 |
| 20260505123656 | 34 | 337 | 6.0 | 13.0 | 0.00 | 0.00 | 0.00 | 42 | 1014.1 |
| 20260505123457 | 34 | 271 | 4.0 | 13.0 | 0.00 | 0.00 | 0.00 | 44 | 1014.1 |
| 20260505123156 | 33 | 271 | 2.0 | 15.0 | 0.00 | 0.00 | 0.00 | 41 | 1014.0 |
| 20260505122656 | 34 | 324 | 6.0 | 16.0 | 0.00 | 0.00 | 0.00 | 41 | 1014.0 |
| 20260505122357 | 34 | 316 | 9.0 | 16.0 | 0.00 | 0.00 | 0.00 | 43 | 1014.1 |
| 20260505122156 | 34 | 309 | 14.0 | 17.0 | 0.00 | 0.00 | 0.00 | 41 | 1014.1 |
| 20260505121656 | 34 | 309 | 0.0 | 15.0 | 0.00 | 0.00 | 0.00 | 42 | 1014.0 |
| 20260505121257 | 34 | 291 | 6.0 | 12.0 | 0.00 | 0.00 | 0.00 | 42 | 1014.0 |
| 20260505121156 | 34 | 293 | 9.0 | 12.0 | 0.00 | 0.00 | 0.00 | 44 | 1014.0 |
| 20260505120656 | 33 | 307 | 3.0 | 11.0 | 0.00 | 0.00 | 0.00 | 47 | 1013.9 |
| 20260505120156 | 33 | 288 | 6.0 | 13.0 | 0.00 | 0.00 | 0.00 | 44 | 1014.0 |
| 20260505115656 | 33 | 278 | 7.0 | 11.0 | 0.00 | 0.00 | 0.00 | 44 | 1014.0 |
| 20260505115156 | 33 | 253 | 8.0 | 12.0 | 0.00 | 0.00 | 0.00 | 45 | 1013.8 |
| 20260505115057 | 33 | 300 | 7.0 | 12.0 | 0.00 | 0.00 | 0.00 | 46 | 1013.9 |
| 20260505114656 | 34 | 316 | 3.0 | 11.0 | 0.00 | 0.00 | 0.00 | 40 | 1014.0 |
| 20260505114156 | 34 | 292 | 3.0 | 7.0 | 0.00 | 0.00 | 0.00 | 46 | 1013.8 |
| 20260505113957 | 34 | 334 | 4.0 | 7.0 | 0.00 | 0.00 | 0.00 | 46 | 1013.9 |
| 20260505113656 | 33 | 264 | 4.0 | 9.0 | 0.00 | 0.00 | 0.00 | 46 | 1013.9 |
| 20260505113156 | 34 | 299 | 2.0 | 16.0 | 0.00 | 0.00 | 0.00 | 44 | 1013.9 |
| 20260505112857 | 34 | 295 | 8.0 | 16.0 | 0.00 | 0.00 | 0.00 | 43 | 1013.9 |
| 20260505112656 | 34 | 288 | 3.0 | 7.0 | 0.00 | 0.00 | 0.00 | 45 | 1013.9 |
| 20260505112156 | 34 | 310 | 6.0 | 16.0 | 0.00 | 0.00 | 0.00 | 43 | 1014.0 |
| 20260505111757 | 34 | 300 | 7.0 | 13.0 | 0.00 | 0.00 | 0.00 | 46 | 1013.9 |
| 20260505111656 | 34 | 289 | 2.0 | 11.0 | 0.00 | 0.00 | 0.00 | 44 | 1013.9 |
| 20260505111156 | 33 | 286 | 6.0 | 15.0 | 0.00 | 0.00 | 0.00 | 46 | 1013.9 |
| 20260505110656 | 33 | 289 | 5.0 | 12.0 | 0.00 | 0.00 | 0.00 | 48 | 1013.9 |
| 20260505110156 | 32 | 303 | 5.0 | 11.0 | 0.00 | 0.00 | 0.00 | 45 | 1013.9 |
| 20260505102156 | 32 | 279 | 9.0 | 12.0 | 0.00 | 0.00 | 0.00 | 48 | 1013.7 |
| 20260505101656 | 31 | 307 | 3.0 | 10.0 | 0.00 | 0.00 | 0.00 | 49 | 1013.8 |
| 20260505101156 | 31 | 306 | 9.0 | 12.0 | 0.00 | 0.00 | 0.00 | 49 | 1013.8 |
| 20260505100656 | 32 | 306 | 12.0 | 12.0 | 0.00 | 0.00 | 0.00 | 47 | 1013.7 |
| 20260505100156 | 32 | 261 | 2.0 | 11.0 | 0.00 | 0.00 | 0.00 | 47 | 1013.6 |
| 20260505100057 | 32 | 303 | 6.0 | 11.0 | 0.00 | 0.00 | 0.00 | 47 | 1013.7 |
| 20260505095656 | 32 | 286 | 0.0 | 8.0 | 0.00 | 0.00 | 0.00 | 50 | 1013.6 |
| 20260505095156 | 31 | 293 | 3.0 | 16.0 | 0.00 | 0.00 | 0.00 | 48 | 1013.6 |
| 20260505094957 | 32 | 315 | 3.0 | 16.0 | 0.00 | 0.00 | 0.00 | 49 | 1013.5 |
| 20260505094656 | 32 | 319 | 4.0 | 13.0 | 0.00 | 0.00 | 0.00 | 46 | 1013.6 |
| 20260505094156 | 31 | 350 | 0.0 | 11.0 | 0.00 | 0.00 | 0.00 | 49 | 1013.6 |
| 20260505093857 | 31 | 295 | 2.0 | 12.0 | 0.00 | 0.00 | 0.00 | 49 | 1013.6 |
| 20260505093656 | 31 | 307 | 5.0 | 12.0 | 0.00 | 0.00 | 0.00 | 48 | 1013.6 |
| 20260505093156 | 31 | 333 | 4.0 | 9.0 | 0.00 | 0.00 | 0.00 | 48 | 1013.5 |
| 20260505092757 | 31 | 286 | 0.0 | 13.0 | 0.00 | 0.00 | 0.00 | 47 | 1013.6 |
| 20260505092656 | 31 | 358 | 2.0 | 17.0 | 0.00 | 0.00 | 0.00 | 45 | 1013.6 |
| 20260505092156 | 32 | 309 | 12.0 | 15.0 | 0.00 | 0.00 | 0.00 | 47 | 1013.6 |
| 20260505091656 | 31 | 340 | 6.0 | 12.0 | 0.00 | 0.00 | 0.00 | 46 | 1013.7 |
| 20260505091156 | 32 | 322 | 4.0 | 9.0 | 0.00 | 0.00 | 0.00 | 48 | 1013.6 |
| 20260505090656 | 32 | 330 | 3.0 | 10.0 | 0.00 | 0.00 | 0.00 | 47 | 1013.5 |
| 20260505090557 | 31 | 307 | 8.0 | 10.0 | 0.00 | 0.00 | 0.00 | 51 | 1013.5 |
| 20260505090156 | 31 | 344 | 0.0 | 8.0 | 0.00 | 0.00 | 0.00 | 50 | 1013.5 |
| 20260505085656 | 31 | 299 | 1.0 | 11.0 | 0.00 | 0.00 | 0.00 | 52 | 1013.5 |
| 20260505085458 | 31 | 300 | 11.0 | 11.0 | 0.00 | 0.00 | 0.00 | 52 | 1013.5 |
| 20260505085156 | 31 | 309 | 6.0 | 8.0 | 0.00 | 0.00 | 0.00 | 50 | 1013.5 |
| 20260505084656 | 30 | 316 | 7.0 | 11.0 | 0.00 | 0.00 | 0.00 | 51 | 1013.5 |
| 20260505084358 | 30 | 330 | 4.0 | 10.0 | 0.00 | 0.00 | 0.00 | 54 | 1013.5 |
| 20260505084156 | 30 | 307 | 4.0 | 10.0 | 0.00 | 0.00 | 0.00 | 53 | 1013.5 |
| 20260505083656 | 30 | 313 | 5.0 | 10.0 | 0.00 | 0.00 | 0.00 | 52 | 1013.4 |
| 20260505083257 | 30 | 330 | 6.0 | 11.0 | 0.00 | 0.00 | 0.00 | 54 | 1013.4 |
| 20260505083156 | 29 | 289 | 4.0 | 11.0 | 0.00 | 0.00 | 0.00 | 54 | 1013.4 |
| 20260505082656 | 29 | 295 | 4.0 | 12.0 | 0.00 | 0.00 | 0.00 | 53 | 1013.4 |
| 20260505082156 | 29 | 258 | 6.0 | 12.0 | 0.00 | 0.00 | 0.00 | 54 | 1013.4 |
| 20260505081656 | 29 | 317 | 8.0 | 14.0 | 0.00 | 0.00 | 0.00 | 55 | 1013.4 |
| 20260505081157 | 29 | 324 | 9.0 | 16.0 | 0.00 | 0.00 | 0.00 | 54 | 1013.4 |
| 20260505081058 | 29 | 306 | 14.0 | 15.0 | 0.00 | 0.00 | 0.00 | 54 | 1013.4 |
| 20260505080656 | 29 | 316 | 3.0 | 8.0 | 0.00 | 0.00 | 0.00 | 57 | 1013.4 |
| 20260505080157 | 29 | 317 | 6.0 | 13.0 | 0.00 | 0.00 | 0.00 | 56 | 1013.4 |
| 20260505075958 | 28 | 333 | 6.0 | 10.0 | 0.00 | 0.00 | 0.00 | 57 | 1013.4 |
| 20260505075657 | 28 | 300 | 6.0 | 11.0 | 0.00 | 0.00 | 0.00 | 58 | 1013.4 |
| 20260505075157 | 28 | 289 | 6.0 | 12.0 | 0.00 | 0.00 | 0.00 | 57 | 1013.4 |
| 20260505074858 | 28 | 299 | 11.0 | 13.0 | 0.00 | 0.00 | 0.00 | 58 | 1013.3 |
| 20260505074657 | 28 | 296 | 9.0 | 13.0 | 0.00 | 0.00 | 0.00 | 59 | 1013.3 |
| 20260505074157 | 28 | 268 | 7.0 | 12.0 | 0.00 | 0.00 | 0.00 | 60 | 1013.3 |
| 20260505073758 | 27 | 305 | 8.0 | 15.0 | 0.00 | 0.00 | 0.00 | 58 | 1013.4 |
| 20260505073657 | 27 | 319 | 7.0 | 15.0 | 0.00 | 0.00 | 0.00 | 59 | 1013.3 |
| 20260505073157 | 27 | 322 | 8.0 | 15.0 | 0.00 | 0.00 | 0.00 | 59 | 1013.4 |
| 20260505072657 | 27 | 307 | 9.0 | 19.0 | 0.00 | 0.00 | 0.00 | 60 | 1013.3 |
| 20260505072157 | 27 | 288 | 7.0 | 10.0 | 0.00 | 0.00 | 0.00 | 61 | 1013.3 |
| 20260505071657 | 27 | 327 | 6.0 | 12.0 | 0.00 | 0.00 | 0.00 | 62 | 1013.1 |
| 20260505071558 | 27 | 278 | 7.0 | 14.0 | 0.00 | 0.00 | 0.00 | 62 | 1013.1 |
| 20260505071157 | 27 | 309 | 8.0 | 14.0 | 0.00 | 0.00 | 0.00 | 61 | 1013.1 |
| 20260505070657 | 26 | 316 | 7.0 | 10.0 | 0.00 | 0.00 | 0.00 | 63 | 1013.0 |
| 20260505070458 | 26 | 292 | 5.0 | 8.0 | 0.00 | 0.00 | 0.00 | 65 | 1013.0 |
| 20260505070157 | 26 | 303 | 4.0 | 10.0 | 0.00 | 0.00 | 0.00 | 64 | 1013.0 |
| 20260505065657 | 26 | 306 | 8.0 | 11.0 | 0.00 | 0.00 | 0.00 | 64 | 1013.0 |
| 20260505065358 | 26 | 326 | 4.0 | 12.0 | 0.00 | 0.00 | 0.00 | 67 | 1013.0 |
| 20260505065157 | 26 | 323 | 6.0 | 12.0 | 0.00 | 0.00 | 0.00 | 65 | 1013.0 |
| 20260505064657 | 26 | 291 | 6.0 | 11.0 | 0.00 | 0.00 | 0.00 | 65 | 1013.0 |
| 20260505064258 | 26 | 326 | 3.0 | 10.0 | 0.00 | 0.00 | 0.00 | 65 | 1013.1 |
| 20260505064157 | 25 | 307 | 7.0 | 10.0 | 0.00 | 0.00 | 0.00 | 65 | 1013.0 |
| 20260505063657 | 25 | 317 | 3.0 | 9.0 | 0.00 | 0.00 | 0.00 | 66 | 1013.0 |
| 20260505063157 | 25 | 326 | 5.0 | 11.0 | 0.00 | 0.00 | 0.00 | 65 | 1013.1 |
| 20260505062657 | 25 | 277 | 1.0 | 7.0 | 0.00 | 0.00 | 0.00 | 67 | 1013.0 |
| 20260505062157 | 25 | 337 | 3.0 | 7.0 | 0.00 | 0.00 | 0.00 | 67 | 1013.0 |
| 20260505062058 | 25 | 286 | 1.0 | 8.0 | 0.00 | 0.00 | 0.00 | 67 | 1013.0 |
| 20260505061657 | 24 | 316 | 5.0 | 8.0 | 0.00 | 0.00 | 0.00 | 67 | 1013.0 |
| 20260505061157 | 24 | 288 | 4.0 | 9.0 | 0.00 | 0.00 | 0.00 | 67 | 1013.0 |
| 20260505060958 | 24 | 324 | 6.0 | 8.0 | 0.00 | 0.00 | 0.00 | 69 | 1013.0 |
| 20260505060657 | 24 | 303 | 3.0 | 6.0 | 0.00 | 0.00 | 0.00 | 70 | 1012.9 |
| 20260505060157 | 24 | 313 | 2.0 | 6.0 | 0.00 | 0.00 | 0.00 | 70 | 1013.0 |
| 20260505055858 | 24 | 310 | 2.0 | 6.0 | 0.00 | 0.00 | 0.00 | 70 | 1013.0 |
| 20260505055657 | 24 | 303 | 3.0 | 6.0 | 0.00 | 0.00 | 0.00 | 71 | 1013.0 |
| 20260505055157 | 24 | 303 | 3.0 | 7.0 | 0.00 | 0.00 | 0.00 | 71 | 1012.9 |
| 20260505054758 | 24 | 293 | 2.0 | 8.0 | 0.00 | 0.00 | 0.00 | 72 | 1013.0 |
| 20260505054657 | 24 | 320 | 1.0 | 8.0 | 0.00 | 0.00 | 0.00 | 72 | 1013.0 |
| 20260505054157 | 23 | 293 | 5.0 | 5.0 | 0.00 | 0.00 | 0.00 | 72 | 1013.0 |
| 20260505053657 | 23 | 315 | 2.0 | 5.0 | 0.00 | 0.00 | 0.00 | 73 | 1013.0 |
| 20260505053157 | 23 | 295 | 1.0 | 6.0 | 0.00 | 0.00 | 0.00 | 74 | 1012.9 |
| 20260505052657 | 22 | 295 | 4.0 | 8.0 | 0.00 | 0.00 | 0.00 | 74 | 1012.9 |
| 20260505052558 | 22 | 319 | 3.0 | 8.0 | 0.00 | 0.00 | 0.00 | 74 | 1012.9 |
| 20260505052157 | 22 | 279 | 0.0 | 5.0 | 0.00 | 0.00 | 0.00 | 75 | 1012.9 |
| 20260505051657 | 22 | 278 | 0.0 | 5.0 | 0.00 | 0.00 | 0.00 | 76 | 1012.9 |
| 20260505051458 | 22 | 296 | 1.0 | 5.0 | 0.00 | 0.00 | 0.00 | 76 | 1012.9 |
| 20260505051157 | 21 | 303 | 5.0 | 5.0 | 0.00 | 0.00 | 0.00 | 77 | 1012.9 |
| 20260505050657 | 21 | 278 | 0.0 | 5.0 | 0.00 | 0.00 | 0.00 | 77 | 1012.9 |
| 20260505050358 | 21 | 298 | 0.0 | 3.0 | 0.00 | 0.00 | 0.00 | 78 | 1012.9 |
| 20260505050157 | 21 | 291 | 0.0 | 4.0 | 0.00 | 0.00 | 0.00 | 78 | 1013.0 |
| 20260505041657 | 19 | 295 | 0.0 | 2.0 | 0.00 | 0.00 | 0.00 | 81 | 1012.6 |
| 20260505041157 | 19 | 285 | 2.0 | 3.0 | 0.00 | 0.00 | 0.00 | 81 | 1012.5 |
| 20260505040858 | 19 | 42 | 0.0 | 0.0 | 0.00 | 0.00 | 0.00 | 81 | 1012.6 |
| 20260505040657 | 19 | 42 | 0.0 | 0.0 | 0.00 | 0.00 | 0.00 | 81 | 1012.5 |
| 20260505040157 | 19 | 313 | 0.0 | 0.0 | 0.00 | 0.00 | 0.00 | 81 | 1012.5 |
| 20260505035758 | 19 | 313 | 0.0 | 0.0 | 0.00 | 0.00 | 0.00 | 81 | 1012.4 |
| 20260505035657 | 19 | 313 | 0.0 | 0.0 | 0.00 | 0.00 | 0.00 | 81 | 1012.4 |
| 20260505035157 | 19 | 313 | 0.0 | 0.0 | 0.00 | 0.00 | 0.00 | 80 | 1012.2 |
| 20260505034657 | 19 | 313 | 0.0 | 0.0 | 0.00 | 0.00 | 0.00 | 80 | 1012.1 |
| 20260505034157 | 19 | 313 | 0.0 | 0.0 | 0.00 | 0.00 | 0.00 | 80 | 1012.2 |
| 20260505033657 | 19 | 313 | 0.0 | 0.0 | 0.00 | 0.00 | 0.00 | 80 | 1012.1 |
| 20260505033558 | 19 | 313 | 0.0 | 0.0 | 0.00 | 0.00 | 0.00 | 80 | 1012.1 |
| 20260505033157 | 19 | 313 | 0.0 | 0.0 | 0.00 | 0.00 | 0.00 | 80 | 1012.2 |
| 20260505032657 | 19 | 313 | 0.0 | 0.0 | 0.00 | 0.00 | 0.00 | 80 | 1012.2 |
| 20260505032458 | 19 | 313 | 0.0 | 0.0 | 0.00 | 0.00 | 0.00 | 80 | 1012.4 |
| 20260505032157 | 19 | 313 | 0.0 | 0.0 | 0.00 | 0.00 | 0.00 | 80 | 1012.4 |
| 20260505031657 | 20 | 313 | 0.0 | 0.0 | 0.00 | 0.00 | 0.00 | 79 | 1012.2 |
| 20260505031358 | 20 | 313 | 0.0 | 0.0 | 0.00 | 0.00 | 0.00 | 80 | 1012.1 |
| 20260505031157 | 20 | 313 | 0.0 | 0.0 | 0.00 | 0.00 | 0.00 | 79 | 1012.1 |
| 20260505030657 | 20 | 313 | 0.0 | 4.0 | 0.00 | 0.00 | 0.00 | 80 | 1012.0 |
| 20260505030258 | 20 | 264 | 1.0 | 4.0 | 0.00 | 0.00 | 0.00 | 80 | 1012.1 |
| 20260505030157 | 20 | 288 | 1.0 | 4.0 | 0.00 | 0.00 | 0.00 | 80 | 1012.0 |
| 20260505025657 | 20 | 258 | 0.0 | 3.0 | 0.00 | 0.00 | 0.00 | 80 | 1012.0 |
| 20260505025157 | 20 | 300 | 0.0 | 3.0 | 0.00 | 0.00 | 0.00 | 80 | 1011.9 |
| 20260505024657 | 19 | 277 | 0.0 | 3.0 | 0.00 | 0.00 | 0.00 | 80 | 1011.9 |
| 20260505024157 | 19 | 282 | 2.0 | 3.0 | 0.00 | 0.00 | 0.00 | 80 | 1011.9 |
| 20260505024058 | 19 | 132 | 0.0 | 0.0 | 0.00 | 0.00 | 0.00 | 80 | 1012.0 |
| 20260505023657 | 19 | 132 | 0.0 | 2.0 | 0.00 | 0.00 | 0.00 | 80 | 1012.0 |
| 20260505023157 | 19 | 268 | 0.0 | 1.0 | 0.00 | 0.00 | 0.00 | 79 | 1011.9 |
| 20260505023000 | 19 | 268 | 0.0 | 2.0 | 0.00 | 0.00 | 0.00 | 79 | 1011.9 |
| 20260505022657 | 20 | 248 | 0.0 | 3.0 | 0.00 | 0.00 | 0.00 | 79 | 1011.9 |
| 20260505022157 | 20 | 229 | 2.0 | 4.0 | 0.00 | 0.00 | 0.00 | 79 | 1011.9 |
| 20260505021858 | 20 | 227 | 0.0 | 4.0 | 0.00 | 0.00 | 0.00 | 79 | 1011.8 |
| 20260505021657 | 20 | 227 | 0.0 | 4.0 | 0.00 | 0.00 | 0.00 | 79 | 1011.8 |
| 20260505021157 | 20 | 291 | 2.0 | 4.0 | 0.00 | 0.00 | 0.00 | 79 | 1011.8 |
| 20260505020758 | 20 | 241 | 4.0 | 4.0 | 0.00 | 0.00 | 0.00 | 79 | 1011.8 |
| 20260505020657 | 20 | 296 | 0.0 | 3.0 | 0.00 | 0.00 | 0.00 | 79 | 1011.8 |
| 20260505020157 | 20 | 279 | 2.0 | 3.0 | 0.00 | 0.00 | 0.00 | 79 | 1011.8 |
| 20260505015657 | 20 | 306 | 0.0 | 3.0 | 0.00 | 0.00 | 0.00 | 78 | 1011.8 |
| 20260505015157 | 20 | 271 | 0.0 | 3.0 | 0.00 | 0.00 | 0.00 | 78 | 1011.8 |
| 20260505014657 | 21 | 271 | 0.0 | 3.0 | 0.00 | 0.00 | 0.00 | 78 | 1011.8 |
| 20260505014558 | 21 | 271 | 0.0 | 3.0 | 0.00 | 0.00 | 0.00 | 78 | 1011.8 |
| 20260505014157 | 21 | 289 | 0.0 | 3.0 | 0.00 | 0.00 | 0.00 | 78 | 1011.8 |
| 20260505013657 | 21 | 298 | 0.0 | 1.0 | 0.00 | 0.00 | 0.00 | 78 | 1011.8 |
| 20260505013458 | 21 | 292 | 0.0 | 4.0 | 0.00 | 0.00 | 0.00 | 77 | 1011.8 |
| 20260505013157 | 21 | 292 | 0.0 | 4.0 | 0.00 | 0.00 | 0.00 | 78 | 1011.8 |
| 20260505012657 | 21 | 284 | 0.0 | 0.0 | 0.00 | 0.00 | 0.00 | 78 | 1011.8 |
| 20260505012358 | 21 | 284 | 0.0 | 0.0 | 0.00 | 0.00 | 0.00 | 77 | 1011.8 |
| 20260505012157 | 21 | 284 | 0.0 | 0.0 | 0.00 | 0.00 | 0.00 | 77 | 1011.8 |
| 20260505011657 | 21 | 284 | 0.0 | 0.0 | 0.00 | 0.00 | 0.00 | 77 | 1011.7 |
| 20260505011259 | 21 | 284 | 0.0 | 4.0 | 0.00 | 0.00 | 0.00 | 77 | 1011.6 |
| 20260505011157 | 21 | 284 | 0.0 | 4.0 | 0.00 | 0.00 | 0.00 | 77 | 1011.7 |
| 20260505010657 | 21 | 298 | 1.0 | 4.0 | 0.00 | 0.00 | 0.00 | 77 | 1011.6 |
| 20260505010157 | 21 | 260 | 0.0 | 3.0 | 0.00 | 0.00 | 0.00 | 77 | 1011.6 |
| 20260505005657 | 21 | 319 | 0.0 | 2.0 | 0.00 | 0.00 | 0.00 | 77 | 1011.5 |
| 20260505005157 | 21 | 296 | 0.0 | 5.0 | 0.00 | 0.00 | 0.00 | 77 | 1011.5 |
| 20260505005058 | 21 | 296 | 1.0 | 5.0 | 0.00 | 0.00 | 0.00 | 77 | 1011.5 |
| 20260505004657 | 21 | 292 | 4.0 | 4.0 | 0.00 | 0.00 | 0.00 | 77 | 1011.5 |
| 20260505004157 | 22 | 293 | 1.0 | 6.0 | 0.00 | 0.00 | 0.00 | 77 | 1011.5 |
| 20260505003958 | 21 | 277 | 2.0 | 6.0 | 0.00 | 0.00 | 0.00 | 76 | 1011.5 |
| 20260505003657 | 21 | 306 | 0.0 | 4.0 | 0.00 | 0.00 | 0.00 | 77 | 1011.5 |
| 20260505003157 | 22 | 313 | 0.0 | 2.0 | 0.00 | 0.00 | 0.00 | 77 | 1011.5 |
| 20260505002858 | 22 | 300 | 1.0 | 4.0 | 0.00 | 0.00 | 0.00 | 77 | 1011.5 |
| 20260505002657 | 22 | 299 | 0.0 | 4.0 | 0.00 | 0.00 | 0.00 | 77 | 1011.5 |
| 20260505002157 | 22 | 288 | 0.0 | 0.0 | 0.00 | 0.00 | 0.00 | 77 | 1011.5 |
| 20260505001758 | 22 | 288 | 0.0 | 3.0 | 0.00 | 0.00 | 0.00 | 77 | 1011.5 |
| 20260505001657 | 22 | 288 | 0.0 | 5.0 | 0.00 | 0.00 | 0.00 | 77 | 1011.5 |
| 20260505001157 | 22 | 326 | 0.0 | 5.0 | 0.00 | 0.00 | 0.00 | 78 | 1011.5 |
| 20260505000657 | 22 | 300 | 3.0 | 6.0 | 0.00 | 0.00 | 0.00 | 78 | 1011.3 |
| 20260505000157 | 22 | 300 | 3.0 | 7.0 | 0.00 | 0.00 | 0.00 | 78 | 1011.2 |
| 20260504235657 | 22 | 310 | 3.0 | 6.0 | 0.00 | 0.00 | 0.00 | 78 | 1011.3 |
| 20260504235558 | 22 | 267 | 0.0 | 6.0 | 0.00 | 0.00 | 0.00 | 77 | 1011.3 |
| 20260504235157 | 22 | 288 | 1.0 | 4.0 | 0.00 | 0.00 | 0.00 | 78 | 1011.3 |
| 20260504234657 | 22 | 299 | 0.0 | 3.0 | 0.00 | 0.00 | 0.00 | 77 | 1011.3 |
| 20260504234458 | 22 | 296 | 2.0 | 2.0 | 0.00 | 0.00 | 0.00 | 77 | 1011.3 |
| 20260504234157 | 22 | 289 | 1.0 | 7.0 | 0.00 | 0.00 | 0.00 | 77 | 1011.2 |
| 20260504233657 | 22 | 285 | 0.0 | 6.0 | 0.00 | 0.00 | 0.00 | 77 | 1011.2 |
| 20260504233358 | 22 | 271 | 1.0 | 7.0 | 0.00 | 0.00 | 0.00 | 77 | 1011.1 |
| 20260504233157 | 23 | 262 | 2.0 | 8.0 | 0.00 | 0.00 | 0.00 | 77 | 1011.1 |
| 20260504232657 | 23 | 295 | 1.0 | 8.0 | 0.00 | 0.00 | 0.00 | 77 | 1011.1 |
| 20260504232259 | 22 | 330 | 4.0 | 8.0 | 0.00 | 0.00 | 0.00 | 77 | 1011.0 |
| 20260504232157 | 22 | 343 | 3.0 | 6.0 | 0.00 | 0.00 | 0.00 | 77 | 1011.1 |
| 20260504231657 | 22 | 293 | 1.0 | 5.0 | 0.00 | 0.00 | 0.00 | 78 | 1010.9 |
| 20260504231157 | 23 | 302 | 0.0 | 5.0 | 0.00 | 0.00 | 0.00 | 77 | 1010.9 |
| 20260504230657 | 23 | 310 | 4.0 | 5.0 | 0.00 | 0.00 | 0.00 | 77 | 1010.9 |
| 20260504230157 | 23 | 303 | 2.0 | 7.0 | 0.00 | 0.00 | 0.00 | 77 | 1011.0 |
| 20260504230059 | 23 | 312 | 1.0 | 7.0 | 0.00 | 0.00 | 0.00 | 77 | 1010.9 |
| 20260504225657 | 23 | 291 | 1.0 | 7.0 | 0.00 | 0.00 | 0.00 | 77 | 1010.9 |
| 20260504225157 | 23 | 300 | 4.0 | 8.0 | 0.00 | 0.00 | 0.00 | 76 | 1011.0 |
| 20260504224959 | 23 | 307 | 1.0 | 8.0 | 0.00 | 0.00 | 0.00 | 76 | 1010.9 |
| 20260504224658 | 23 | 300 | 3.0 | 7.0 | 0.00 | 0.00 | 0.00 | 76 | 1010.9 |
| 20260504224158 | 23 | 317 | 2.0 | 5.0 | 0.00 | 0.00 | 0.00 | 76 | 1010.8 |
| 20260504223859 | 23 | 285 | 0.0 | 5.0 | 0.00 | 0.00 | 0.00 | 75 | 1010.8 |
| 20260504223658 | 23 | 307 | 0.0 | 6.0 | 0.00 | 0.00 | 0.00 | 75 | 1010.8 |
| 20260504223158 | 23 | 319 | 2.0 | 9.0 | 0.00 | 0.00 | 0.00 | 74 | 1010.9 |
| 20260504222759 | 23 | 306 | 4.0 | 11.0 | 0.00 | 0.00 | 0.00 | 75 | 1010.8 |
| 20260504222658 | 23 | 298 | 3.0 | 11.0 | 0.00 | 0.00 | 0.00 | 75 | 1010.8 |
| 20260504222158 | 24 | 302 | 2.0 | 7.0 | 0.00 | 0.00 | 0.00 | 75 | 1010.9 |
| 20260504221658 | 24 | 291 | 4.0 | 9.0 | 0.00 | 0.00 | 0.00 | 75 | 1010.9 |
| 20260504221158 | 24 | 331 | 0.0 | 7.0 | 0.00 | 0.00 | 0.00 | 75 | 1010.8 |
| 20260504220838 | 24 | 315 | 4.0 | 6.0 | 0.00 | 0.00 | 0.00 | 76 | 1010.8 |
| 20260504220559 | 24 | 281 | 0.0 | 6.0 | 0.00 | 0.00 | 0.00 | 76 | 1010.8 |
| 20260504220158 | 24 | 302 | 4.0 | 7.0 | 0.00 | 0.00 | 0.00 | 76 | 1010.7 |
| 20260504215658 | 24 | 310 | 2.0 | 5.0 | 0.00 | 0.00 | 0.00 | 77 | 1010.7 |
| 20260504215459 | 24 | 274 | 0.0 | 5.0 | 0.00 | 0.00 | 0.00 | 77 | 1010.6 |
| 20260504215158 | 24 | 316 | 0.0 | 7.0 | 0.00 | 0.00 | 0.00 | 77 | 1010.6 |
| 20260504214658 | 24 | 292 | 0.0 | 5.0 | 0.00 | 0.00 | 0.00 | 77 | 1010.4 |
| 20260504214359 | 24 | 284 | 1.0 | 13.0 | 0.00 | 0.00 | 0.00 | 77 | 1010.4 |
| 20260504214158 | 24 | 281 | 0.0 | 13.0 | 0.00 | 0.00 | 0.00 | 76 | 1010.3 |